Wind_Speed
10 9 8 7 6 5 4 5 6 6 6 6 5 5 6 7 7 6 5 5 6 6 6 7 6 6 4 4 3 3 4 4 4 4 4 3 3 3 3 3 4 3 3 3 3 2 3 2 2 5 5 5 6 6 5 6 7 9 10 10 10 10 10 10 10 11 12 14 16 18 21 21 20 18 17 16 14 11 10 9 7 6 7 6 6 5 6 7
10 9 8 7 6 5 5 5 5 5 6 5 5 6 7 7 7 6 6 6 6 6 6 6 5 4 4 3 3 2 3 3 2 3 4 4 4 5 5 5 5 5 4 4 3 2 2 2 3 6 6 7 7 6 5 6 8 10 11 11 11 10 10 10 11 12 14 17 18 17 17 17 17 16 15 15 13 12 10 8 7 6 7 7 7 7 8 10
10 9 8 7 6 5 5 5 5 5 5 5 5 6 7 7 6 6 6 6 6 5 5 5 4 4 4 3 3 1 2 4 5 6 6 6 7 7 7 7 7 6 5 4 3 2 2 2 4 6 7 8 6 5 4 6 8 10 10 11 11 9 9 10 11 13 14 16 15 13 13 14 15 15 14 14 13 12 9 7 7 7 8 8 9 10 11 12
10 9 8 7 6 5 5 5 6 6 5 5 6 6 6 6 6 6 6 5 5 4 4 5 5 5 5 5 4 2 3 7 7 7 8 8 9 9 8 8 7 6 5 5 4 3 3 3 3 4 6 5 4 3 4 6 7 9 10 10 10 9 8 9 11 12 12 12 12 11 11 12 13 13 14 14 13 11 8 7 7 8 9 9 11 12 13 14
9 9 8 7 5 5 5 6 6 5 5 5 6 6 6 6 6 6 5 5 5 5 6 6 7 7 8 8 8 6 5 7 8 9 10 10 9 9 8 7 6 5 6 6 5 5 4 4 4 3 2 2 1 1 3 4 5 7 8 9 10 8 7 8 9 10 11 10 10 10 10 10 11 12 13 13 12 10 9 8 8 9 10 11 13 14 15 15
10 9 8 6 5 5 6 6 6 5 5 6 6 6 6 6 6 6 6 7 7 8 8 9 10 10 10 10 9 9 8 7 9 10 10 10 9 9 8 7 5 5 7 8 7 6 6 6 6 4 0 1 1 0 1 1 3 5 6 7 7 6 5 6 8 10 11 11 10 10 10 10 12 13 13 14 13 11 10 10 10 11 12 14 15 15 15 15
11 10 8 6 6 6 7 6 5 5 6 6 6 6 6 5 6 6 7 8 9 10 10 11 12 11 11 11 9 10 9 9 10 10 10 10 10 10 9 8 7 8 8 7 5 5 5 5 4 1 1 1 1 1 1 1 1 3 4 4 4 4 4 6 8 10 11 11 11 11 12 13 14 15 14 14 14 12 12 12 12 13 15 16 17 16 16 16
11 10 8 7 7 7 7 5 4 5 6 6 6 5 5 6 7 8 9 10 10 11 11 11 12 11 11 10 9 9 9 10 11 11 11 11 11 11 10 9 9 9 7 6 5 4 3 2 1 1 2 1 1 2 1 0 1 2 2 3 4 5 7 9 10 12 12 12 13 14 16 16 16 18 17 15 15 15 15 14 14 15 17 18 18 18 17 17
11 8 7 6 7 7 6 4 4 5 6 6 5 5 6 8 9 11 11 11 11 11 12 12 11 11 10 9 9 9 9 11 12 12 12 11 11 11 9 9 8 7 7 6 5 4 4 3 3 3 2 1 0 1 1 1 2 2 4 5 6 7 9 11 11 13 14 14 16 18 20 20 19 20 20 18 18 19 18 17 16 17 19 20 19 18 18 19
9 7 6 6 6 6 5 4 4 5 5 5 5 6 7 9 10 11 12 12 12 12 12 11 11 10 9 9 9 9 10 12 12 12 11 11 11 10 9 8 7 6 6 6 5 4 4 4 4 3 2 2 2 2 3 3 4 4 5 6 7 8 9 10 12 13 15 17 19 21 23 23 22 22 23 23 23 22 20 19 18 18 19 20 19 19 19 19
8 6 5 6 6 5 4 4 4 5 5 5 6 8 9 10 11 12 12 13 12 12 11 10 10 9 9 11 10 9 11 12 12 12 11 10 11 11 9 8 7 6 6 6 5 5 5 5 5 4 3 4 4 4 4 5 6 6 6 7 8 9 9 10 11 11 15 18 20 23 26 25 24 25 26 25 25 24 24 22 19 19 20 20 19 19 19 19
8 7 6 5 5 5 4 4 4 5 5 6 8 9 10 10 11 11 12 12 12 11 10 10 10 10 11 12 11 11 12 12 12 11 10 10 11 10 8 7 7 7 7 6 6 6 5 5 5 5 5 6 5 5 5 5 6 7 8 7 8 9 9 11 11 10 12 17 19 22 26 28 27 27 27 27 29 29 28 25 21 20 20 21 20 20 18 18
9 8 7 6 5 4 4 4 4 6 7 8 9 10 10 11 11 11 10 11 10 10 11 11 10 10 11 11 12 13 13 12 11 10 10 10 9 8 6 6 6 7 7 7 7 7 7 5 4 5 7 7 6 6 5 6 6 7 9 9 9 8 8 10 11 10 12 16 19 21 27 31 27 26 28 30 32 32 31 28 24 22 22 22 22 22 20 19
9 9 8 7 5 5 4 5 6 8 9 9 10 10 11 11 11 10 10 11 11 10 11 11 10 10 10 10 12 13 12 11 10 9 9 8 7 6 5 6 6 7 9 9 9 9 8 7 4 4 6 7 8 7 6 6 6 7 9 9 9 9 8 10 10 10 13 16 20 22 30 33 28 27 30 31 33 33 33 30 27 24 24 25 26 25 25 23
11 10 8 7 6 5 6 7 8 9 10 10 11 11 11 11 11 11 10 10 11 11 12 11 11 10 8 9 11 11 11 10 9 8 7 6 5 5 6 7 8 10 11 11 11 10 9 7 4 3 4 7 9 8 7 7 6 6 8 9 10 11 11 11 11 13 15 17 20 21 28 33 30 30 31 31 33 33 33 31 28 27 27 28 29 29 29 28
11 9 8 7 7 7 8 9 10 11 10 10 10 10 10 10 10 11 11 11 11 11 10 9 10 9 7 9 10 10 10 9 7 6 5 5 5 6 7 9 10 11 11 12 11 9 8 6 5 5 4 5 7 7 8 8 8 9 10 11 13 14 15 14 13 16 19 21 22 21 27 34 32 31 31 32 32 32 33 31 29 29 30 30 30 31 31 31
10 9 9 8 8 9 10 11 12 11 11 10 9 9 9 10 10 10 11 11 11 11 10 8 8 8 8 9 9 8 7 6 6 6 6 6 6 7 9 10 11 11 11 12 11 10 7 4 5 6 6 6 5 5 6 8 9 12 14 15 16 16 19 19 17 18 23 25 25 25 31 35 32 30 32 32 32 32 32 30 29 30 31 32 32 31 32 32
10 9 9 9 10 11 12 12 12 12 11 11 12 12 12 12 12 11 10 10 10 10 10 8 7 7 9 9 8 7 6 7 7 7 7 7 7 7 9 10 10 11 11 11 11 11 9 6 7 7 6 6 6 7 7 7 11 15 16 18 19 20 21 20 20 22 26 28 28 29 34 35 32 31 32 31 31 32 30 28 29 31 32 33 32 31 32 32
10 10 10 10 11 12 13 13 13 12 12 12 14 15 15 14 13 12 11 10 11 11 10 10 9 9 9 8 7 8 8 8 8 9 9 9 9 9 10 11 12 13 12 12 12 11 10 9 9 7 6 7 8 10 12 11 13 16 18 20 21 24 23 20 21 24 27 31 32 33 36 37 33 30 28 28 29 30 29 27 29 31 33 34 32 30 30 29
10 10 10 12 13 13 14 14 15 15 15 15 14 14 14 12 10 11 11 11 13 14 13 12 11 12 10 9 9 8 8 9 10 11 11 11 11 11 11 11 13 14 13 14 13 13 12 9 9 8 7 9 10 11 12 13 15 16 18 20 21 24 24 23 24 24 25 33 37 36 37 38 32 27 25 25 27 27 27 28 29 31 33 33 31 30 28 28
11 11 12 13 14 15 15 15 16 17 17 17 16 14 13 12 10 11 11 12 15 16 16 15 15 13 11 11 10 10 10 11 13 14 14 13 12 13 12 13 14 14 15 16 15 14 11 8 10 10 9 10 10 11 12 13 16 17 19 22 23 23 25 27 25 24 26 34 40 38 38 38 29 24 25 26 27 26 26 26 28 31 32 31 30 28 27 28
13 13 14 15 15 16 16 15 15 14 15 16 15 13 13 12 12 12 11 13 16 16 17 17 16 14 13 13 13 13 11 10 13 14 14 13 13 14 13 14 15 15 16 15 14 13 9 10 12 11 11 11 11 12 14 14 16 18 21 23 24 24 28 31 29 28 30 35 42 41 39 36 27 25 27 26 25 22 21 24 26 29 30 29 28 26 27 29
14 15 15 16 16 16 15 14 13 11 11 11 11 10 10 11 13 13 13 15 16 16 15 14 14 15 14 15 16 14 11 10 13 13 13 13 14 15 14 15 15 15 14 13 13 11 10 13 13 13 13 12 13 14 15 16 17 19 22 23 24 25 27 32 35 35 35 37 41 39 37 34 28 25 22 18 18 16 16 22 25 28 28 27 26 26 27 27
15 16 17 17 16 15 14 13 11 9 8 7 7 5 5 7 8 9 12 14 15 15 15 13 14 17 16 15 17 14 12 14 15 14 15 15 16 15 15 16 15 14 14 14 14 12 12 14 14 14 14 13 15 16 18 19 20 22 23 22 25 27 27 31 35 37 41 39 34 30 32 30 19 12 12 13 14 14 15 20 25 27 27 25 25 25 24 23
16 17 17 16 15 14 12 11 9 7 6 5 4 3 2 3 3 4 6 10 15 16 15 15 14 17 17 15 17 14 12 15 15 15 16 15 15 15 15 16 15 15 16 16 14 11 13 15 15 16 15 16 17 18 20 21 23 25 23 23 27 30 31 32 33 37 41 36 28 24 20 16 10 7 11 17 16 15 17 21 24 24 24 24 23 23 22 22
17 17 17 15 13 11 10 8 7 6 6 4 4 4 4 3 2 2 1 5 13 15 15 15 14 16 16 15 17 14 11 14 16 17 16 15 15 15 15 15 15 17 16 15 13 11 14 17 17 17 16 17 18 20 20 21 25 26 25 28 30 32 33 33 34 34 35 30 27 25 15 13 18 19 20 19 15 19 23 22 22 21 21 22 21 21 22 24
16 17 16 13 10 8 6 5 5 6 6 4 4 4 5 5 3 2 1 1 9 15 15 15 15 16 16 15 17 15 12 14 16 16 15 15 16 15 15 15 15 17 15 14 13 13 17 18 18 19 18 18 19 20 21 23 25 25 27 30 31 33 33 33 35 34 33 31 29 25 17 17 20 20 19 17 16 25 24 18 17 18 18 18 18 21 24 28
15 16 15 11 7 3 2 3 5 6 4 3 3 3 3 4 3 3 1 2 7 12 14 15 15 15 16 16 16 15 13 14 15 16 17 16 15 15 14 13 14 16 15 13 13 16 20 19 19 20 19 18 18 20 22 23 25 28 30 30 32 34 33 34 35 32 28 24 24 24 16 12 13 14 14 17 24 26 16 12 13 15 15 17 20 24 27 29
14 14 13 10 5 1 3 4 5 4 2 1 2 2 3 3 2 2 3 3 6 10 11 13 13 13 15 15 14 14 14 15 16 17 18 17 16 17 15 14 16 17 14 13 16 20 21 20 19 20 18 17 18 20 22 23 26 30 30 32 36 33 32 33 26 23 19 13 16 21 13 6 11 21 21 20 24 18 9 9 12 15 17 21 24 27 29 32
12 12 10 8 5 3 3 4 3 1 0 0 0 1 3 4 2 1 3 2 6 9 10 11 13 13 12 12 12 13 14 15 17 17 17 17 17 17 17 15 17 17 14 15 19 21 21 20 18 17 16 18 20 21 22 23 26 28 29 36 38 33 34 28 13 14 13 8 11 14 11 5 8 22 27 22 19 13 10 11 14 19 22 24 26 28 31 36
10 9 8 6 4 2 1 1 0 1 1 1 1 1 3 6 5 3 3 3 5 8 9 9 12 14 12 12 13 14 15 15 17 16 15 16 14 16 18 17 20 19 15 19 25 22 20 18 15 14 16 20 22 21 21 24 24 25 30 35 33 32 33 18 8 11 6 7 15 18 15 10 8 18 27 24 19 14 13 14 18 21 23 25 27 30 35 41
9 7 6 4 3 2 2 3 2 2 2 2 2 2 2 4 7 7 4 4 4 8 10 9 12 14 13 15 16 16 16 17 20 19 19 20 19 22 24 23 25 22 18 26 31 28 24 18 12 14 19 21 21 23 26 24 22 26 32 30 20 18 19 9 6 10 6 14 25 21 18 15 17 25 27 21 16 13 15 16 18 20 21 24 29 33 40 47
8 6 6 5 5 4 4 4 4 4 4 3 3 4 3 3 5 6 6 6 6 9 11 9 12 14 14 15 17 18 18 19 21 20 20 21 20 24 26 24 25 23 21 27 29 30 29 19 14 18 21 21 22 26 28 25 27 30 27 21 12 6 6 5 6 5 9 24 32 24 16 16 20 21 16 15 13 13 16 15 16 19 21 26 33 40 49 56
8 8 7 6 6 5 4 4 4 5 5 4 3 3 4 5 5 6 7 8 8 10 10 9 12 14 14 16 18 20 20 20 22 20 20 19 19 23 23 21 22 23 25 25 22 25 22 13 15 22 22 21 21 22 23 26 31 27 18 16 14 7 3 5 6 4 10 25 35 29 15 10 14 15 14 18 16 13 14 13 15 21 25 32 42 49 54 57
10 9 8 6 5 5 4 4 4 4 4 5 5 4 5 6 6 7 8 9 9 12 11 9 11 13 14 16 18 21 21 20 21 20 20 20 20 23 23 21 23 26 27 25 21 20 16 14 20 24 22 19 18 19 23 28 25 18 18 19 17 13 12 14 16 19 19 18 23 25 19 15 16 17 20 20 17 15 13 14 21 26 33 42 50 53 53 54
10 9 7 6 5 5 5 4 4 4 4 5 5 7 9 9 7 7 8 9 10 13 12 9 11 14 15 16 18 20 20 20 20 21 21 20 20 23 23 21 25 28 27 26 23 17 15 21 26 24 19 16 18 23 27 27 22 19 21 22 19 20 21 19 19 23 19 10 12 18 23 24 18 17 22 19 17 17 17 22 29 33 41 52 56 56 56 58
8 7 6 6 6 5 5 4 5 5 5 5 6 10 12 11 9 9 9 9 10 12 13 12 13 16 18 18 19 20 20 20 20 22 22 20 21 22 22 22 25 28 27 26 24 18 18 28 31 24 19 22 26 29 28 26 23 22 21 21 20 20 19 14 10 11 10 7 12 17 22 25 18 16 20 20 19 21 26 31 35 39 49 57 59 59 60 60
8 7 6 5 5 5 5 4 5 7 7 6 9 13 13 11 11 9 9 9 10 12 14 14 15 16 18 19 20 22 22 21 21 23 21 20 22 22 21 23 27 27 27 27 25 22 21 27 31 26 23 29 31 29 29 26 23 22 21 20 18 15 15 14 8 6 7 7 10 17 24 24 21 19 19 19 22 27 32 35 39 47 54 56 57 59 61 59
8 7 6 6 6 6 7 6 6 8 7 5 10 14 12 11 11 9 9 10 10 12 14 15 16 16 18 19 21 22 23 22 21 23 21 21 23 22 20 25 27 27 28 28 25 24 21 18 23 28 29 32 31 28 28 28 25 23 19 19 19 16 18 20 16 11 9 8 9 17 19 11 8 15 16 17 22 26 30 37 45 52 54 52 55 59 59 58
7 7 7 7 7 7 8 9 9 9 8 9 13 14 12 12 11 10 10 11 11 12 14 15 17 17 18 20 21 22 24 21 20 22 21 22 24 22 21 26 28 27 27 27 25 25 22 14 21 33 35 32 30 26 25 25 23 22 20 20 22 22 22 24 25 22 15 9 7 10 12 5 3 13 20 20 21 27 35 44 50 53 53 55 58 59 60 61
8 8 9 10 10 10 10 11 11 11 11 14 15 14 13 13 12 11 11 12 13 13 14 16 17 17 18 20 21 22 23 19 18 21 21 22 24 22 24 27 28 27 26 26 25 24 22 18 26 35 37 36 32 25 21 20 18 19 21 24 25 26 25 18 16 21 17 14 13 11 13 16 19 25 28 24 24 33 44 50 54 58 58 58 61 62 63 61
9 9 11 12 12 13 11 11 13 13 14 16 15 13 13 13 12 13 13 13 14 14 15 15 16 18 18 20 20 22 23 19 18 21 21 23 24 23 26 27 27 28 27 25 24 23 24 22 27 34 36 35 30 24 21 18 19 22 24 29 30 28 27 18 13 22 23 20 24 21 16 20 26 28 25 24 30 44 51 54 59 62 61 61 64 65 63 59
11 11 13 12 12 13 11 11 13 14 15 15 15 14 14 13 13 13 14 14 14 14 15 15 16 17 18 20 20 21 23 20 18 21 23 23 24 24 25 26 27 27 25 24 23 24 23 20 27 37 41 40 34 27 23 20 23 30 32 35 35 33 34 29 25 31 29 24 24 18 13 20 28 30 31 35 45 54 56 59 61 61 62 65 66 64 60 56
14 14 14 13 13 13 12 13 14 14 15 15 15 14 14 14 14 13 14 14 14 14 15 16 17 18 19 20 20 22 23 21 20 22 23 24 25 25 25 26 26 24 24 23 23 23 21 18 25 30 28 32 34 29 30 33 35 38 39 39 39 38 37 33 33 32 25 27 26 12 13 29 37 40 45 51 56 59 59 60 59 59 63 64 63 60 57 54
14 15 15 15 13 12 13 16 15 14 16 17 15 15 14 13 14 13 13 14 14 14 15 17 18 19 20 20 20 21 23 22 21 21 23 25 25 24 25 26 24 23 23 24 24 24 22 21 24 18 10 13 18 20 30 40 42 43 43 41 40 40 36 34 35 26 19 31 32 16 21 42 48 48 54 57 58 59 59 58 57 60 63 61 58 56 53 50
12 14 15 15 13 11 13 16 15 14 16 16 15 16 14 13 13 13 13 14 14 15 16 17 18 19 20 21 21 21 23 23 22 22 24 24 24 24 25 24 22 22 23 25 26 25 24 25 24 20 18 19 25 30 35 39 42 43 43 43 42 40 37 36 32 25 25 36 37 29 34 47 52 55 57 56 56 56 56 57 60 63 62 58 56 53 50 48
11 11 11 11 11 12 14 15 15 14 15 14 15 15 14 14 13 12 13 14 14 15 16 17 18 19 20 22 22 22 24 23 22 23 24 23 23 23 23 22 21 21 24 26 26 26 27 27 25 24 27 28 33 37 37 35 38 40 41 45 43 35 33 34 32 32 33 30 31 39 45 48 55 59 54 51 52 53 55 60 63 63 60 58 55 51 48 46
12 12 11 10 11 12 13 14 14 14 14 14 14 14 14 14 13 12 13 14 15 16 16 17 19 20 21 22 23 23 25 24 23 24 24 24 23 22 22 22 20 23 26 25 26 27 27 28 28 29 32 34 34 34 34 34 37 40 42 42 36 29 31 35 34 33 32 26 31 45 50 51 56 54 47 49 51 52 59 64 64 62 60 57 53 48 46 44
12 13 13 12 12 13 13 13 14 14 13 13 13 14 14 14 13 13 13 14 15 16 17 18 20 21 21 22 23 24 25 26 26 26 25 24 24 24 23 21 21 25 26 25 26 26 26 29 30 30 36 38 34 34 36 36 39 44 39 31 30 34 37 36 33 32 32 34 40 48 52 53 51 46 46 49 50 56 64 65 63 61 59 55 49 45 45 45
13 13 13 12 12 13 13 13 13 13 12 12 12 12 13 13 14 13 13 14 15 16 17 19 20 21 21 22 23 24 24 24 24 24 24 23 23 23 22 20 21 24 24 25 26 25 27 31 30 31 38 39 37 38 39 39 42 41 32 30 38 43 38 32 31 34 38 43 49 51 51 50 46 44 46 49 55 64 67 63 62 61 56 51 46 46 48 50
14 14 13 12 11 13 13 12 12 11 11 11 11 12 12 13 14 13 13 14 15 16 18 19 20 20 20 21 22 22 22 22 21 21 21 20 21 20 19 19 22 23 23 24 24 25 28 30 32 33 35 38 40 39 40 45 42 32 31 41 45 39 33 32 34 39 44 48 52 50 47 45 45 45 50 57 64 66 63 62 62 58 52 48 46 50 52 52
13 13 14 12 11 12 12 11 11 10 11 11 11 12 12 13 14 13 13 14 15 17 18 18 19 20 20 21 21 22 22 21 20 19 18 18 19 18 16 18 20 22 23 23 24 26 27 28 33 32 31 40 42 37 41 45 31 23 36 45 39 32 33 37 42 48 49 47 47 46 44 43 45 52 61 66 65 61 59 61 59 54 49 48 51 54 54 53
Wind_Direction
149 146 141 134 128 120 92 58 48 45 53 69 64 46 36 29 27 30 31 33 29 24 19 13 17 24 37 47 30 15 14 7 349 333 327 330 334 344 356 356 357 348 329 312 296 266 235 210 237 231 194 169 183 186 184 198 202 202 209 218 224 222 226 229 233 251 263 270 277 284 290 293 295 294 293 294 297 300 298 296 296 287 286 281 269 258 247 249
147 142 138 134 129 116 83 61 54 57 71 71 50 37 29 21 24 27 29 33 27 21 15 14 25 34 45 54 51 38 15 9 8 5 357 360 11 15 18 19 16 9 360 342 324 294 269 230 219 221 197 185 189 181 182 207 210 210 211 214 224 231 238 241 248 264 274 279 284 290 293 294 296 295 296 299 300 304 304 301 297 290 290 286 277 271 267 269
143 137 135 132 125 104 76 66 68 79 79 59 42 31 22 20 21 22 26 28 25 20 16 24 36 41 47 61 80 87 30 34 38 26 18 21 24 23 26 27 24 20 19 11 353 328 287 231 218 217 209 205 191 165 184 215 216 217 220 227 238 249 256 256 263 272 278 283 287 293 295 297 299 297 299 301 302 307 308 304 303 301 298 293 285 279 276 277
138 134 133 129 119 93 74 79 88 86 71 49 38 26 19 19 15 20 26 27 30 28 32 40 44 48 50 51 52 68 60 45 38 29 26 27 25 25 29 31 30 26 22 14 356 337 308 265 233 217 216 210 180 163 202 218 223 226 232 244 256 269 272 272 278 278 278 284 292 298 298 301 300 298 301 301 303 309 308 303 305 307 305 299 289 283 281 279
136 132 131 126 110 88 87 97 97 82 60 45 33 23 18 15 15 23 28 37 42 46 55 55 54 53 49 44 38 43 52 44 37 34 32 28 27 30 34 38 35 29 20 2 348 348 337 315 308 283 227 192 153 191 222 221 234 239 242 256 267 278 283 286 288 285 287 294 303 307 305 303 298 298 301 302 305 310 305 301 301 303 304 299 290 285 283 282
135 131 128 120 102 96 106 107 96 72 53 40 26 20 17 18 23 31 42 51 53 58 63 61 57 52 47 41 35 41 46 44 41 38 36 31 32 39 43 43 35 36 27 2 354 9 4 336 320 314 222 136 114 213 251 214 229 245 251 263 270 275 285 296 297 295 296 302 309 315 315 310 306 307 308 308 307 307 302 299 299 300 299 295 291 288 287 287
131 126 117 107 105 110 116 111 90 63 46 30 21 20 22 31 43 53 55 55 58 61 62 61 57 51 48 42 39 46 45 48 48 42 41 38 41 49 48 44 39 41 35 13 13 33 18 343 318 322 94 120 129 99 42 75 224 253 250 250 254 256 270 287 296 296 296 305 314 320 324 320 317 314 311 309 305 303 300 297 300 302 302 299 298 298 299 299
126 119 105 99 111 118 119 113 82 53 35 21 22 26 38 55 62 63 58 56 58 56 54 55 55 52 50 47 49 48 42 52 54 50 49 49 52 53 48 47 46 45 43 35 41 58 63 57 41 40 68 98 140 140 129 70 241 246 235 232 243 256 269 275 285 294 298 311 320 322 324 322 323 318 314 313 307 303 301 297 299 304 307 306 305 307 310 312
126 118 100 100 116 119 118 108 70 41 24 22 30 43 63 69 65 59 56 56 55 52 50 50 54 56 53 54 54 49 49 59 60 58 57 57 59 57 52 54 54 52 51 50 53 63 73 69 45 33 36 16 258 215 261 251 232 240 245 249 258 267 270 273 288 301 306 317 323 323 322 321 324 319 317 318 310 305 303 298 297 303 309 309 307 311 315 316
130 120 106 111 121 116 109 91 58 33 26 33 46 64 73 69 62 57 55 54 51 51 50 51 55 55 58 64 57 54 62 66 65 64 62 62 65 62 57 55 56 55 50 46 47 46 46 37 20 16 352 318 306 301 297 262 248 251 254 264 274 278 276 283 301 312 316 323 326 324 320 319 320 317 318 318 311 308 306 302 297 300 307 306 306 310 313 314
133 128 121 121 120 109 96 74 47 35 40 53 67 74 72 66 61 59 57 57 56 54 55 61 61 54 61 68 63 66 72 69 66 66 63 61 63 62 56 44 39 43 42 37 32 30 32 23 5 350 306 302 298 293 289 265 258 254 259 276 289 299 301 303 316 322 324 325 325 323 317 314 315 315 316 314 310 310 308 305 300 298 303 301 300 302 305 309
141 141 137 128 117 103 85 62 46 52 65 75 77 73 68 64 60 58 57 57 58 56 57 62 62 58 64 70 72 71 69 65 64 65 61 55 55 57 51 34 24 23 23 21 19 22 24 17 0 337 308 302 289 280 286 277 270 264 266 277 295 313 314 310 319 324 325 323 323 323 312 306 310 312 312 310 309 308 306 304 299 296 299 297 295 296 296 298
152 154 150 136 118 100 80 63 67 78 83 82 76 70 67 64 62 60 56 52 52 53 56 63 66 64 65 70 72 69 66 63 61 61 58 54 50 46 35 25 20 12 7 3 2 8 10 4 356 335 313 299 282 280 292 292 286 281 283 287 298 312 308 311 320 320 323 320 320 319 305 302 310 310 309 309 307 305 304 302 297 295 297 296 295 294 291 288
162 163 153 134 114 97 83 80 89 88 86 79 73 71 70 68 65 60 57 55 54 57 61 66 70 68 68 69 70 70 67 63 60 57 55 53 43 29 13 11 12 4 359 355 355 1 5 1 358 340 311 293 286 285 287 294 301 298 295 292 297 308 309 316 322 318 322 321 321 315 301 304 313 310 308 306 302 301 301 300 296 293 294 295 296 295 291 286
165 160 141 122 107 96 91 94 94 87 82 76 73 74 74 76 69 61 65 66 64 66 68 69 70 73 75 73 72 70 64 60 57 56 53 46 32 14 4 8 5 358 356 354 353 358 1 358 349 334 306 289 282 280 286 297 307 313 308 296 295 305 306 309 314 315 320 322 323 312 298 305 312 308 306 301 297 298 299 299 297 293 292 294 296 296 293 289
157 144 126 114 104 99 97 96 90 82 77 73 74 76 79 83 72 64 70 76 75 72 75 76 73 75 75 72 69 63 59 54 51 55 50 37 17 5 4 6 3 354 351 350 349 357 1 353 332 322 323 312 288 281 294 290 289 306 314 311 305 306 305 304 307 313 317 317 318 310 300 304 309 305 301 297 296 296 297 299 296 292 290 290 293 295 295 292
142 128 117 108 104 101 99 93 86 82 77 74 78 84 88 84 74 72 75 79 79 75 77 78 75 76 72 70 67 63 59 47 41 41 32 20 2 1 3 4 2 351 347 348 346 354 1 344 320 325 340 343 328 316 306 281 287 308 317 319 316 312 312 310 309 313 315 312 312 309 303 303 306 303 298 295 294 293 297 299 293 286 285 286 288 293 295 292
129 118 110 106 106 104 98 91 86 85 81 81 86 90 91 85 79 79 77 76 77 76 75 72 79 79 70 67 64 57 47 33 29 19 12 6 353 355 359 0 358 350 349 349 347 353 354 339 332 332 323 319 319 333 338 318 315 323 325 325 322 317 315 312 313 317 314 309 309 309 304 303 304 301 297 295 294 294 297 296 285 279 278 281 284 289 292 289
121 113 109 110 109 105 99 92 91 91 92 94 94 93 90 85 81 79 78 78 80 82 77 70 72 68 60 56 47 36 29 24 16 5 2 356 349 351 353 353 354 352 351 350 351 355 354 348 344 337 319 322 330 339 345 335 327 329 327 325 321 316 314 314 318 320 314 309 308 308 306 304 302 299 297 295 293 292 291 285 277 273 274 276 279 283 285 283
117 113 111 111 109 106 103 102 101 100 101 98 92 90 87 84 84 86 89 84 78 75 71 62 54 49 42 34 27 17 13 16 9 1 357 351 349 350 348 350 353 352 350 352 355 357 358 353 341 341 343 347 350 345 340 330 328 331 326 322 318 313 312 316 321 320 315 310 308 309 306 303 302 297 295 295 292 289 283 275 272 269 269 272 274 276 277 278
117 112 111 113 112 111 110 109 105 101 100 93 87 84 84 87 87 87 85 74 68 62 56 48 38 32 24 19 16 3 1 6 1 356 352 350 351 348 348 352 353 354 356 356 355 356 356 339 333 343 347 347 346 338 333 332 333 331 325 321 319 316 312 315 320 318 316 311 307 309 306 302 301 293 292 293 290 289 283 273 269 267 266 269 271 271 273 275
117 114 116 117 116 115 112 109 104 100 97 94 92 90 89 89 83 77 69 62 59 51 45 40 30 22 15 12 8 4 7 1 352 351 350 351 353 354 356 355 354 358 360 354 350 352 348 337 341 342 337 338 335 330 331 334 334 330 328 324 322 323 318 317 321 319 319 313 309 312 309 303 302 296 294 290 284 284 280 270 265 264 266 269 270 269 272 278
120 120 122 120 118 116 112 108 103 99 98 96 100 99 91 85 77 70 61 56 54 47 43 37 27 22 15 10 6 9 18 6 358 360 359 1 3 3 3 359 357 358 355 349 347 350 348 345 343 336 332 329 323 324 325 325 326 326 328 325 323 327 321 318 321 321 319 314 311 312 306 302 303 299 292 282 281 285 275 266 262 263 266 266 266 269 276 282
125 127 125 121 116 111 106 101 96 93 92 91 100 105 86 75 71 65 57 52 48 42 37 30 26 21 17 14 11 16 22 11 9 10 10 11 8 5 4 360 358 355 351 350 350 348 345 343 338 333 329 319 315 317 319 318 318 322 326 326 325 326 321 316 319 320 316 313 311 310 306 305 305 290 276 277 287 292 279 269 265 262 261 261 266 273 279 281
132 132 128 123 115 107 99 91 86 81 71 67 79 83 59 48 49 54 56 48 40 34 28 25 23 18 17 18 17 24 23 12 13 15 15 13 7 6 4 359 357 354 351 350 349 343 339 337 334 331 323 315 313 312 315 318 319 323 326 327 327 325 321 318 320 319 314 311 313 314 313 308 294 258 279 289 287 292 290 278 266 257 257 263 270 273 274 274
137 137 134 128 116 104 95 85 76 64 50 45 51 52 46 36 32 33 28 38 29 25 23 20 20 18 17 19 22 26 19 11 14 15 15 11 6 7 4 359 356 352 347 345 344 338 332 330 329 328 321 315 312 311 316 320 323 325 326 326 327 324 319 318 320 316 307 303 307 308 297 280 281 281 288 286 282 297 296 279 261 253 258 264 265 267 268 271
142 144 142 134 120 105 92 71 48 33 26 37 43 45 41 37 44 10 294 11 13 12 16 16 19 18 14 19 23 24 20 12 10 10 13 10 7 7 3 358 355 349 343 340 340 337 330 326 325 324 321 317 313 313 318 321 322 322 323 324 323 321 318 319 320 311 302 300 304 301 282 271 282 284 281 275 287 302 294 268 254 256 259 258 259 265 268 273
147 152 152 148 136 103 52 23 11 7 14 37 43 36 22 27 41 21 45 92 6 4 10 12 15 11 10 16 19 21 22 13 7 8 9 9 7 7 2 356 353 349 345 339 335 336 332 326 322 320 319 319 316 315 317 318 318 319 321 321 321 320 318 319 316 308 303 301 300 300 284 265 279 276 268 274 294 302 288 259 258 253 252 254 258 265 270 278
152 160 165 171 182 277 336 347 349 357 22 50 45 26 2 10 24 35 78 84 4 3 8 10 10 6 7 12 11 16 19 14 12 10 5 5 5 6 3 354 352 351 350 344 335 335 333 326 321 318 317 321 320 316 314 315 317 318 320 320 320 318 317 320 314 303 304 286 286 299 284 248 283 284 284 290 295 293 273 261 252 239 246 254 260 266 274 283
155 166 176 189 214 275 313 326 327 337 86 208 84 26 30 33 8 62 82 31 355 3 6 7 8 8 9 9 8 13 17 16 15 12 6 4 4 3 358 351 351 352 350 344 338 336 334 329 323 320 321 324 323 318 313 313 315 318 322 322 320 319 323 326 308 301 308 268 285 306 286 264 292 292 296 299 295 285 275 260 233 231 244 251 260 271 282 293
155 168 178 195 221 257 303 336 84 143 160 182 162 54 55 47 37 80 82 359 356 4 4 8 8 7 9 11 14 15 15 14 11 10 6 4 2 357 355 356 356 356 350 343 341 341 341 337 331 329 329 327 323 319 316 314 316 323 326 324 322 325 332 333 307 319 312 265 308 314 297 278 255 287 298 298 296 286 273 253 233 239 249 258 273 285 296 305
157 165 173 184 181 158 135 121 107 93 97 112 101 81 77 54 48 66 60 3 6 4 6 14 10 8 10 13 17 15 14 13 8 7 5 4 3 360 2 5 2 1 352 344 343 343 347 351 348 339 334 331 324 321 321 319 321 327 326 324 327 334 338 338 319 326 278 285 309 311 303 289 272 290 298 290 285 271 261 253 243 252 266 281 294 302 309 314
157 158 161 155 142 135 123 108 87 81 86 88 91 74 69 80 58 53 44 33 28 13 12 14 10 11 12 12 15 13 12 11 9 8 6 5 4 4 6 6 3 2 349 343 343 342 345 353 353 342 335 331 326 323 325 324 323 324 323 325 332 338 340 321 302 310 286 298 307 306 301 292 289 300 293 272 268 256 253 247 247 266 282 296 308 314 316 317
146 142 142 134 126 122 109 95 80 83 84 70 77 79 80 90 77 61 52 43 35 23 19 17 15 15 13 12 14 12 10 8 8 8 6 5 4 6 7 4 4 1 349 346 347 341 336 333 341 340 332 326 323 322 322 319 319 321 320 320 314 295 276 282 274 273 287 297 302 303 296 281 297 301 278 273 273 249 237 239 261 283 296 308 317 320 319 318
131 129 128 121 118 111 94 86 78 83 85 72 75 94 100 93 80 74 59 44 37 27 22 21 20 19 17 15 14 12 9 6 5 6 6 6 6 6 6 4 2 359 353 350 345 338 320 308 330 335 328 323 322 323 323 321 320 318 316 315 308 296 286 278 274 276 279 286 295 296 290 288 296 290 280 279 269 245 237 262 285 300 312 321 326 325 323 322
124 122 117 108 106 101 94 94 87 81 81 76 82 92 95 92 84 76 59 45 37 27 25 24 19 21 21 18 16 12 8 5 5 6 6 7 7 5 4 2 359 356 354 349 343 337 312 311 329 335 329 329 327 327 326 323 320 313 310 310 306 304 298 286 282 286 285 283 286 287 290 297 300 293 288 276 254 248 259 285 300 311 320 325 329 329 328 325
121 118 114 107 103 102 103 101 94 86 74 78 97 94 90 88 80 70 58 46 38 29 27 26 22 19 16 14 14 11 8 8 8 6 7 6 4 3 2 360 356 352 352 347 341 334 313 315 330 337 334 334 332 329 327 325 321 313 307 309 311 310 303 289 282 296 297 284 284 284 288 295 298 291 282 263 247 259 276 293 306 314 320 325 329 330 329 326
113 113 116 115 110 105 96 89 96 94 83 84 97 94 88 83 75 65 57 45 38 33 28 28 26 18 13 11 9 9 9 9 8 6 6 5 360 359 359 356 352 350 349 345 338 333 321 317 326 334 332 332 333 330 328 330 326 317 309 310 314 309 299 294 282 289 293 280 286 289 289 292 289 281 275 268 271 278 285 297 311 319 325 330 331 330 329 325
106 106 110 111 107 100 91 89 96 96 96 93 92 91 87 82 74 63 55 46 38 33 28 27 25 18 15 10 6 8 8 8 7 5 4 2 357 355 356 353 350 348 346 343 338 333 327 312 313 324 327 328 333 333 330 330 325 318 310 308 313 307 298 296 288 280 284 283 291 295 297 298 274 274 278 284 292 295 301 313 323 329 333 333 331 331 329 325
105 101 102 99 95 94 95 96 92 92 103 102 92 92 88 82 75 62 54 46 38 34 29 25 22 18 14 9 7 7 7 7 5 3 1 359 356 353 353 350 348 347 344 343 340 333 328 304 297 318 327 329 335 337 331 327 322 316 309 309 315 311 306 302 293 286 280 274 294 303 300 304 288 293 291 289 297 307 315 324 330 333 334 331 331 331 328 325
106 100 96 94 93 93 94 95 95 96 100 97 91 91 87 79 72 62 53 44 38 34 28 24 20 17 12 9 7 5 5 6 3 1 360 357 356 351 347 347 345 345 344 343 342 336 328 307 296 312 325 329 335 340 336 331 325 319 314 314 315 311 308 303 293 293 282 267 282 291 290 296 303 302 293 286 299 315 323 328 331 332 332 331 330 328 326 326
106 102 97 96 95 94 92 93 98 96 93 90 87 87 83 75 67 58 48 41 37 32 27 23 18 15 12 9 7 3 3 3 1 1 358 355 355 348 344 346 345 344 344 342 344 340 331 317 304 311 321 329 337 344 342 337 330 325 321 317 315 311 308 300 289 299 295 282 285 284 281 295 305 307 297 291 306 316 321 324 326 328 329 328 326 325 326 327
103 99 95 94 94 95 97 95 93 90 87 86 84 81 76 70 62 53 44 39 34 29 26 21 15 14 12 8 6 3 2 1 359 360 357 353 352 347 345 346 344 344 345 343 344 343 337 328 319 320 326 332 340 345 341 336 329 325 322 319 315 311 311 307 299 299 295 287 290 287 281 297 310 316 310 305 309 311 314 319 323 326 325 324 324 325 327 327
102 97 93 90 87 92 97 92 85 83 84 82 79 75 69 63 57 49 42 36 31 28 23 18 15 13 11 8 5 2 3 1 357 357 355 351 350 349 346 345 345 346 346 344 345 343 339 333 325 324 330 336 340 344 338 332 327 321 319 320 319 315 314 312 308 304 293 288 294 283 276 298 310 316 312 311 312 313 316 319 323 325 324 324 326 327 328 327
97 95 93 88 84 86 89 85 79 75 76 75 72 68 62 57 51 45 40 33 28 27 21 16 14 10 8 7 3 2 2 359 355 354 353 352 351 349 347 346 347 348 348 347 346 342 338 334 330 322 312 320 321 323 326 323 319 318 319 322 321 318 316 315 313 305 289 296 298 276 279 300 311 315 314 315 316 316 318 320 322 325 326 327 328 328 328 326
91 90 90 88 84 79 77 77 75 70 67 66 65 61 56 52 48 41 36 30 27 25 20 16 12 8 7 4 2 1 0 357 355 352 352 354 352 349 347 347 348 351 352 348 346 343 336 335 337 324 304 302 304 312 321 320 314 316 320 322 323 322 320 319 313 299 297 303 299 292 299 307 313 317 317 318 318 317 319 322 325 328 328 329 329 328 327 327
89 88 87 87 84 76 71 72 72 67 62 59 58 56 51 47 44 38 32 28 25 22 18 13 10 7 5 3 1 0 358 357 355 353 353 355 354 351 348 348 351 355 355 350 349 345 335 333 339 330 317 316 316 320 326 323 314 315 318 320 325 327 323 318 310 307 313 307 295 306 314 313 314 318 319 317 317 318 321 325 328 329 329 330 329 327 327 328
84 84 82 83 83 77 72 71 68 64 59 54 52 50 45 41 39 36 30 25 23 20 15 10 8 6 4 2 1 359 356 356 357 356 355 354 355 354 352 352 356 358 357 354 350 345 335 331 336 331 323 324 325 327 331 326 321 320 321 322 327 329 325 320 316 319 322 308 300 312 317 314 315 319 317 315 316 320 324 327 328 329 330 330 329 328 328 328
78 80 77 76 77 75 71 68 65 61 55 49 45 44 40 37 35 31 27 24 21 18 13 9 7 5 3 2 0 358 356 354 355 355 355 355 355 355 355 357 357 356 357 353 349 345 336 332 336 331 323 327 334 336 334 330 326 325 327 332 333 330 328 324 322 326 326 316 313 317 316 315 317 316 313 313 317 321 325 326 328 330 331 331 330 330 329 327
71 74 74 70 69 70 69 64 61 58 53 47 43 39 36 32 30 27 24 22 18 15 12 9 6 4 2 2 0 359 358 355 353 353 353 355 356 355 356 358 355 355 355 351 348 346 339 335 337 330 322 328 341 341 336 334 328 326 333 340 335 330 329 327 326 329 328 323 321 319 316 316 317 314 313 316 320 323 325 327 330 332 333 332 332 331 329 326
66 66 67 66 62 65 65 61 58 55 51 47 41 36 33 28 26 24 21 19 17 14 11 8 6 3 2 2 1 359 359 358 356 355 354 354 356 357 356 355 354 353 353 353 349 347 344 339 339 334 321 326 340 341 336 334 331 331 339 338 333 330 329 330 332 332 329 325 322 320 318 317 317 317 318 321 323 326 328 330 332 333 334 333 332 330 327 327
59 58 60 59 56 59 61 57 55 51 47 45 39 34 31 26 23 22 19 17 15 13 10 6 5 4 2 2 2 1 1 1 360 359 359 357 357 359 357 354 355 353 352 355 352 350 350 343 341 337 321 324 338 341 333 333 334 338 339 334 329 326 327 330 332 331 330 327 323 319 316 315 316 320 323 325 327 329 330 330 333 335 334 332 330 328 326 327
Height
3148 3148 3149 3150 3150 3150 3150 3150 3150 3150 3149 3149 3149 3149 3148 3147 3147 3146 3145 3144 3144 3143 3143 3142 3142 3141 3141 3141 3141 3140 3140 3139 3139 3138 3138 3137 3137 3136 3135 3135 3135 3134 3134 3134 3134 3133 3133 3133 3133 3133 3133 3132 3132 3132 3131 3131 3130 3130 3130 3130 3129 3129 3129 3129 3129 3128 3127 3126 3126 3125 3123 3122 3121 3121 3120 3119 3119 3118 3118 3117 3116 3115 3114 3114 3113 3113 3112 3112
3148 3149 3149 3150 3150 3151 3151 3151 3150 3150 3150 3150 3149 3149 3148 3147 3147 3146 3145 3144 3144 3143 3143 3142 3142 3142 3142 3141 3141 3140 3140 3140 3139 3139 3138 3138 3137 3137 3136 3136 3135 3135 3135 3134 3134 3133 3133 3132 3132 3133 3132 3132 3132 3131 3131 3130 3130 3129 3129 3129 3129 3128 3128 3128 3128 3127 3126 3125 3125 3124 3123 3121 3120 3119 3119 3118 3117 3116 3116 3115 3114 3113 3113 3112 3111 3111 3110 3109
3148 3149 3150 3150 3150 3151 3151 3151 3150 3150 3150 3150 3149 3148 3148 3147 3147 3146 3145 3144 3144 3143 3143 3142 3142 3142 3142 3142 3141 3141 3140 3140 3139 3139 3139 3138 3138 3137 3137 3136 3136 3135 3135 3135 3134 3133 3132 3132 3132 3132 3132 3132 3131 3130 3130 3130 3129 3129 3129 3128 3128 3128 3128 3127 3127 3126 3125 3124 3123 3123 3122 3120 3118 3118 3117 3116 3115 3115 3114 3113 3112 3111 3110 3109 3109 3108 3107 3107
3149 3149 3150 3150 3151 3151 3151 3151 3150 3150 3150 3150 3149 3149 3148 3147 3146 3146 3145 3144 3144 3143 3143 3143 3143 3142 3142 3142 3141 3141 3141 3140 3140 3140 3139 3139 3138 3138 3137 3137 3136 3136 3135 3135 3134 3133 3133 3132 3132 3131 3131 3131 3130 3129 3129 3129 3129 3128 3128 3128 3127 3127 3126 3126 3125 3124 3123 3122 3122 3122 3121 3119 3118 3116 3115 3114 3113 3112 3111 3110 3109 3108 3107 3107 3106 3106 3105 3104
3149 3149 3150 3150 3151 3151 3151 3151 3151 3150 3150 3150 3149 3149 3148 3147 3146 3145 3145 3144 3144 3144 3143 3143 3143 3143 3143 3142 3142 3142 3141 3141 3141 3140 3140 3139 3139 3138 3138 3137 3136 3136 3135 3135 3134 3133 3133 3133 3132 3131 3131 3130 3129 3129 3129 3129 3128 3128 3127 3126 3126 3125 3125 3124 3124 3123 3122 3121 3121 3120 3119 3118 3117 3115 3114 3113 3111 3110 3109 3108 3107 3106 3105 3105 3104 3103 3103 3102
3149 3150 3150 3151 3151 3151 3151 3151 3151 3151 3150 3150 3149 3148 3148 3147 3146 3145 3145 3144 3144 3144 3144 3144 3144 3143 3143 3143 3143 3142 3142 3142 3141 3141 3140 3139 3139 3138 3138 3137 3137 3136 3135 3135 3134 3134 3133 3133 3132 3132 3131 3130 3129 3129 3129 3128 3128 3127 3127 3126 3125 3125 3124 3124 3123 3122 3121 3121 3120 3119 3118 3117 3116 3114 3112 3111 3109 3108 3107 3106 3105 3104 3103 3103 3102 3101 3100 3099
3150 3150 3151 3151 3151 3151 3151 3151 3151 3151 3150 3150 3149 3148 3147 3147 3146 3146 3145 3145 3145 3145 3145 3145 3144 3144 3144 3144 3143 3143 3143 3142 3142 3141 3140 3140 3139 3138 3138 3137 3137 3136 3135 3135 3134 3134 3133 3133 3133 3132 3131 3130 3129 3129 3129 3128 3127 3127 3126 3126 3125 3124 3124 3123 3122 3121 3120 3119 3118 3117 3116 3115 3114 3112 3111 3109 3107 3106 3105 3104 3103 3102 3101 3100 3099 3098 3097 3096
3150 3151 3151 3151 3151 3151 3151 3151 3151 3151 3150 3150 3149 3148 3148 3147 3147 3146 3146 3146 3146 3146 3146 3145 3145 3145 3145 3145 3144 3144 3143 3142 3142 3141 3141 3140 3139 3138 3138 3138 3137 3136 3135 3135 3134 3134 3133 3133 3133 3132 3131 3130 3129 3129 3129 3128 3127 3127 3126 3125 3125 3124 3123 3122 3121 3120 3118 3117 3116 3115 3113 3112 3111 3109 3108 3107 3106 3104 3103 3102 3101 3099 3098 3097 3096 3095 3094 3092
3150 3151 3151 3152 3152 3151 3151 3151 3151 3151 3150 3150 3149 3148 3148 3148 3147 3147 3147 3147 3147 3147 3147 3146 3146 3146 3145 3145 3145 3144 3144 3143 3142 3142 3141 3140 3139 3139 3139 3138 3137 3137 3136 3135 3135 3134 3134 3133 3133 3132 3131 3130 3130 3129 3128 3128 3127 3126 3125 3125 3124 3123 3122 3121 3120 3118 3116 3115 3113 3112 3110 3109 3108 3106 3105 3105 3103 3102 3101 3099 3098 3097 3095 3094 3093 3091 3090 3089
3150 3151 3152 3152 3152 3152 3151 3151 3151 3151 3150 3150 3149 3149 3149 3148 3148 3148 3148 3148 3148 3148 3147 3147 3147 3146 3146 3145 3145 3145 3144 3143 3143 3142 3142 3141 3140 3139 3139 3139 3138 3137 3137 3136 3136 3135 3134 3133 3133 3132 3131 3130 3130 3129 3128 3127 3126 3126 3125 3124 3123 3122 3121 3120 3119 3117 3114 3113 3111 3109 3107 3106 3106 3104 3103 3102 3100 3099 3098 3097 3095 3094 3093 3091 3090 3088 3087 3086
3151 3151 3152 3152 3152 3151 3151 3151 3151 3151 3150 3150 3150 3150 3149 3149 3149 3149 3149 3149 3149 3149 3148 3148 3147 3147 3146 3145 3145 3145 3145 3144 3143 3143 3143 3142 3141 3140 3140 3140 3139 3138 3137 3137 3136 3136 3135 3134 3133 3132 3131 3130 3129 3128 3127 3127 3126 3125 3124 3123 3122 3121 3120 3119 3117 3115 3113 3111 3110 3108 3105 3104 3103 3102 3100 3099 3097 3096 3095 3094 3093 3091 3090 3089 3087 3086 3084 3083
3151 3151 3152 3152 3151 3151 3151 3151 3151 3151 3151 3151 3151 3150 3150 3150 3150 3150 3150 3150 3150 3149 3149 3148 3148 3147 3147 3146 3146 3146 3145 3145 3144 3144 3144 3143 3142 3141 3141 3141 3140 3139 3138 3137 3137 3136 3135 3134 3133 3132 3131 3130 3129 3128 3127 3126 3125 3124 3123 3122 3121 3120 3119 3117 3116 3114 3113 3111 3109 3107 3103 3101 3101 3100 3098 3096 3094 3093 3092 3091 3090 3089 3087 3086 3085 3083 3082 3081
3151 3151 3152 3152 3152 3152 3152 3152 3152 3152 3152 3151 3151 3151 3151 3151 3151 3151 3151 3150 3150 3150 3149 3148 3148 3148 3148 3148 3147 3147 3146 3146 3146 3145 3144 3144 3143 3142 3142 3141 3140 3139 3138 3137 3136 3135 3134 3134 3133 3132 3131 3129 3129 3128 3127 3126 3125 3124 3123 3122 3121 3119 3118 3116 3115 3114 3113 3111 3109 3107 3101 3098 3099 3097 3095 3093 3091 3089 3088 3088 3087 3086 3084 3083 3081 3080 3079 3077
3151 3151 3152 3152 3152 3152 3152 3152 3152 3152 3152 3152 3152 3152 3152 3152 3152 3151 3151 3151 3150 3150 3149 3149 3149 3149 3149 3149 3148 3148 3147 3147 3146 3145 3144 3144 3143 3142 3142 3141 3139 3139 3138 3137 3136 3135 3134 3133 3132 3131 3130 3129 3128 3127 3127 3126 3125 3124 3122 3121 3120 3119 3118 3116 3115 3113 3112 3110 3108 3106 3099 3094 3096 3095 3092 3091 3088 3086 3085 3084 3084 3083 3081 3079 3078 3076 3075 3074
3151 3152 3152 3152 3153 3153 3153 3153 3153 3153 3153 3153 3153 3153 3153 3152 3152 3152 3152 3151 3151 3151 3151 3151 3150 3150 3150 3150 3149 3148 3148 3147 3146 3145 3144 3144 3143 3142 3141 3140 3139 3139 3138 3137 3136 3135 3134 3133 3132 3131 3130 3128 3128 3127 3127 3126 3125 3124 3122 3121 3120 3119 3117 3116 3114 3112 3110 3109 3107 3105 3097 3092 3094 3092 3090 3088 3085 3084 3082 3081 3080 3079 3078 3076 3074 3073 3071 3070
3152 3152 3152 3153 3153 3153 3153 3153 3153 3153 3154 3154 3154 3153 3153 3153 3153 3153 3153 3152 3152 3152 3152 3152 3151 3151 3151 3150 3149 3148 3147 3147 3146 3145 3145 3144 3143 3143 3141 3140 3140 3138 3138 3136 3136 3135 3133 3132 3131 3130 3129 3128 3128 3127 3127 3126 3125 3123 3122 3121 3119 3117 3116 3114 3113 3110 3108 3106 3105 3103 3097 3091 3092 3090 3087 3085 3082 3081 3079 3078 3077 3075 3074 3072 3071 3069 3068 3067
3152 3152 3153 3153 3153 3153 3154 3154 3154 3154 3154 3154 3154 3154 3154 3154 3154 3154 3154 3153 3153 3153 3153 3153 3152 3152 3151 3150 3149 3148 3147 3147 3146 3145 3145 3144 3143 3142 3141 3140 3140 3139 3138 3136 3135 3134 3133 3133 3131 3130 3130 3129 3128 3127 3126 3125 3124 3122 3121 3119 3117 3116 3114 3112 3111 3109 3106 3103 3101 3100 3095 3090 3090 3087 3084 3082 3079 3077 3076 3075 3074 3072 3070 3069 3067 3066 3065 3063
3152 3153 3153 3153 3154 3154 3154 3155 3155 3155 3155 3155 3155 3155 3155 3155 3155 3155 3155 3154 3154 3153 3153 3153 3152 3152 3151 3150 3149 3148 3148 3147 3146 3146 3145 3144 3143 3142 3141 3140 3139 3139 3138 3136 3135 3134 3133 3132 3131 3130 3130 3129 3128 3126 3125 3124 3122 3120 3118 3117 3115 3113 3112 3110 3108 3106 3103 3099 3098 3096 3091 3088 3087 3085 3081 3079 3076 3074 3073 3072 3070 3069 3067 3066 3064 3063 3062 3060
3153 3153 3154 3154 3154 3155 3155 3156 3156 3156 3156 3156 3156 3156 3156 3156 3156 3156 3155 3155 3154 3154 3153 3153 3153 3152 3151 3150 3150 3149 3148 3147 3147 3146 3145 3144 3143 3142 3141 3140 3139 3138 3137 3136 3135 3134 3133 3132 3131 3130 3130 3128 3127 3125 3124 3122 3121 3119 3117 3115 3113 3110 3109 3108 3106 3104 3100 3095 3093 3092 3087 3084 3083 3081 3078 3076 3073 3071 3070 3069 3067 3066 3064 3063 3062 3061 3059 3058
3154 3154 3154 3155 3155 3156 3156 3157 3157 3157 3157 3157 3157 3157 3157 3157 3157 3157 3156 3156 3155 3154 3154 3154 3153 3152 3152 3151 3150 3150 3149 3148 3148 3147 3146 3145 3143 3142 3141 3140 3139 3138 3137 3135 3134 3133 3132 3131 3130 3129 3128 3127 3125 3124 3123 3121 3120 3118 3116 3114 3112 3108 3105 3105 3104 3102 3098 3092 3087 3087 3084 3079 3079 3078 3075 3072 3070 3068 3067 3066 3065 3063 3062 3061 3060 3059 3057 3055
3154 3155 3155 3156 3156 3157 3157 3158 3158 3158 3158 3158 3158 3158 3158 3158 3158 3157 3157 3156 3155 3155 3155 3154 3154 3153 3153 3152 3151 3151 3150 3149 3148 3147 3146 3145 3144 3143 3141 3140 3139 3137 3136 3134 3133 3132 3131 3131 3130 3128 3127 3126 3125 3123 3122 3121 3119 3117 3115 3112 3110 3107 3103 3102 3102 3099 3097 3090 3083 3083 3079 3075 3075 3074 3072 3070 3067 3065 3064 3063 3063 3061 3060 3059 3058 3057 3054 3051
3155 3156 3156 3157 3157 3157 3158 3159 3159 3159 3159 3159 3159 3159 3159 3159 3158 3158 3157 3157 3156 3156 3155 3155 3155 3154 3153 3152 3152 3151 3150 3150 3149 3147 3146 3145 3144 3142 3141 3140 3138 3137 3135 3134 3133 3131 3131 3130 3129 3127 3126 3125 3124 3123 3121 3120 3118 3116 3114 3111 3108 3106 3101 3097 3098 3096 3094 3088 3079 3077 3074 3070 3071 3070 3069 3067 3064 3063 3062 3061 3061 3059 3058 3057 3056 3054 3051 3050
3156 3157 3157 3157 3158 3158 3159 3160 3160 3160 3160 3160 3160 3160 3160 3159 3159 3158 3158 3157 3157 3157 3156 3156 3156 3155 3154 3153 3152 3151 3150 3150 3149 3147 3146 3144 3143 3142 3140 3139 3138 3136 3135 3134 3133 3131 3130 3129 3128 3127 3126 3124 3123 3122 3120 3118 3117 3115 3112 3109 3106 3104 3100 3094 3092 3091 3089 3086 3078 3073 3069 3065 3067 3067 3065 3064 3062 3061 3060 3059 3058 3057 3056 3054 3053 3051 3050 3049
3157 3157 3158 3159 3159 3160 3160 3161 3161 3161 3161 3161 3161 3161 3160 3160 3159 3159 3159 3158 3158 3158 3157 3157 3156 3155 3154 3153 3152 3151 3150 3150 3148 3147 3145 3143 3142 3141 3140 3139 3137 3136 3135 3133 3132 3131 3130 3129 3127 3126 3125 3123 3122 3120 3119 3116 3115 3113 3110 3108 3104 3102 3101 3096 3092 3088 3084 3082 3078 3073 3066 3062 3063 3064 3062 3062 3060 3059 3058 3057 3056 3054 3053 3052 3051 3050 3049 3046
3157 3158 3159 3160 3160 3161 3161 3161 3162 3161 3161 3161 3161 3161 3160 3160 3160 3160 3159 3159 3158 3158 3157 3157 3156 3155 3154 3152 3151 3150 3150 3149 3148 3146 3145 3143 3142 3141 3139 3138 3137 3136 3134 3133 3132 3130 3129 3128 3127 3125 3123 3122 3121 3119 3117 3114 3112 3110 3108 3106 3103 3100 3098 3095 3092 3087 3079 3076 3076 3074 3069 3062 3060 3062 3061 3060 3059 3057 3056 3055 3053 3052 3050 3050 3049 3048 3045 3042
3158 3159 3160 3160 3161 3161 3162 3162 3162 3162 3162 3161 3161 3160 3160 3160 3160 3160 3159 3159 3159 3158 3158 3157 3156 3155 3154 3152 3151 3149 3149 3149 3147 3146 3145 3143 3142 3141 3139 3138 3137 3135 3134 3132 3132 3130 3129 3128 3126 3124 3122 3121 3119 3117 3115 3113 3110 3108 3105 3103 3101 3099 3096 3093 3091 3087 3079 3074 3073 3075 3073 3063 3058 3060 3059 3058 3057 3055 3053 3052 3050 3049 3048 3048 3046 3044 3041 3038
3159 3160 3161 3161 3162 3162 3162 3162 3162 3162 3161 3161 3161 3160 3160 3160 3160 3159 3159 3159 3159 3159 3158 3157 3156 3156 3154 3153 3151 3150 3150 3149 3147 3147 3145 3144 3142 3141 3140 3138 3137 3135 3133 3132 3131 3130 3128 3126 3124 3123 3121 3119 3118 3116 3114 3112 3109 3106 3104 3102 3100 3097 3094 3090 3088 3084 3078 3073 3071 3071 3071 3063 3057 3057 3057 3055 3054 3052 3050 3049 3048 3047 3046 3044 3042 3039 3036 3033
3160 3161 3161 3162 3162 3162 3162 3162 3162 3162 3161 3161 3161 3161 3160 3160 3159 3159 3159 3160 3161 3160 3159 3158 3157 3156 3155 3153 3152 3151 3151 3149 3148 3147 3145 3144 3142 3141 3140 3138 3137 3135 3133 3132 3130 3129 3127 3125 3124 3122 3120 3119 3117 3115 3113 3111 3108 3105 3103 3100 3097 3095 3091 3089 3085 3080 3076 3072 3068 3067 3068 3063 3056 3055 3056 3054 3052 3050 3047 3047 3045 3044 3042 3040 3037 3034 3032 3029
3161 3161 3162 3162 3162 3162 3162 3162 3162 3162 3162 3161 3161 3161 3160 3160 3159 3159 3159 3161 3162 3161 3160 3159 3158 3157 3155 3154 3153 3152 3151 3150 3148 3146 3144 3143 3142 3141 3139 3138 3136 3134 3132 3131 3130 3128 3126 3124 3123 3121 3119 3118 3117 3115 3112 3110 3107 3103 3101 3098 3095 3093 3089 3086 3081 3077 3075 3071 3066 3065 3065 3063 3055 3052 3053 3051 3048 3047 3046 3044 3042 3040 3038 3035 3032 3030 3027 3024
3162 3162 3163 3163 3163 3163 3163 3162 3162 3162 3161 3161 3161 3161 3160 3160 3159 3159 3160 3162 3162 3161 3161 3160 3159 3158 3157 3155 3154 3153 3152 3150 3149 3147 3145 3143 3141 3140 3139 3137 3136 3134 3132 3131 3130 3128 3126 3123 3122 3120 3118 3117 3115 3114 3111 3109 3106 3102 3100 3095 3091 3089 3086 3082 3078 3076 3074 3068 3064 3064 3064 3063 3056 3049 3049 3048 3045 3044 3043 3040 3038 3036 3033 3031 3028 3025 3023 3020
3162 3163 3163 3163 3163 3163 3163 3162 3162 3161 3161 3161 3161 3161 3160 3160 3159 3159 3161 3163 3162 3162 3161 3160 3159 3158 3157 3156 3155 3153 3152 3151 3149 3148 3146 3144 3143 3141 3139 3137 3135 3133 3132 3130 3128 3127 3125 3123 3120 3119 3118 3116 3114 3112 3110 3108 3105 3102 3099 3094 3089 3084 3081 3077 3075 3075 3073 3065 3063 3062 3061 3062 3056 3048 3048 3047 3044 3042 3039 3036 3034 3032 3029 3027 3024 3021 3018 3015
3163 3163 3163 3163 3163 3163 3163 3162 3162 3161 3161 3161 3161 3161 3161 3160 3160 3161 3163 3163 3162 3162 3161 3161 3160 3159 3157 3156 3155 3153 3152 3150 3148 3146 3144 3143 3141 3139 3137 3135 3133 3131 3130 3128 3125 3123 3122 3121 3120 3118 3117 3115 3112 3109 3108 3106 3104 3101 3098 3095 3091 3086 3082 3078 3075 3075 3071 3062 3061 3062 3060 3057 3052 3047 3046 3045 3042 3038 3035 3033 3031 3029 3026 3023 3020 3017 3014 3011
3163 3163 3164 3164 3163 3163 3163 3162 3162 3162 3162 3161 3161 3161 3160 3161 3161 3163 3163 3163 3163 3163 3162 3161 3160 3159 3158 3156 3155 3153 3151 3149 3148 3146 3144 3143 3141 3139 3137 3136 3135 3133 3131 3129 3125 3121 3119 3118 3119 3118 3115 3114 3112 3108 3105 3103 3101 3100 3096 3094 3093 3092 3090 3085 3081 3077 3069 3058 3056 3059 3058 3053 3048 3045 3044 3042 3039 3035 3032 3031 3028 3025 3023 3020 3017 3014 3010 3006
3164 3164 3164 3164 3163 3163 3163 3163 3162 3162 3162 3161 3161 3161 3161 3161 3163 3164 3164 3164 3164 3163 3162 3162 3161 3160 3158 3156 3155 3153 3151 3149 3148 3147 3145 3144 3143 3141 3139 3138 3137 3135 3133 3130 3127 3124 3121 3119 3118 3117 3115 3113 3111 3109 3106 3103 3100 3097 3096 3095 3093 3093 3093 3088 3082 3078 3070 3059 3054 3055 3054 3049 3045 3044 3042 3039 3036 3032 3029 3028 3025 3022 3021 3018 3014 3010 3005 3001
3164 3164 3164 3164 3164 3163 3163 3163 3163 3162 3162 3162 3161 3161 3161 3162 3164 3165 3165 3164 3164 3163 3163 3162 3161 3160 3158 3156 3155 3153 3151 3150 3148 3147 3146 3144 3143 3141 3140 3138 3136 3135 3132 3130 3127 3125 3123 3119 3117 3116 3114 3112 3110 3109 3106 3103 3100 3096 3095 3094 3092 3091 3090 3086 3080 3075 3071 3064 3055 3050 3048 3045 3044 3041 3039 3037 3033 3030 3028 3025 3023 3020 3017 3015 3010 3005 3000 2996
3165 3165 3164 3164 3164 3164 3164 3163 3163 3163 3163 3162 3162 3162 3162 3163 3165 3165 3165 3165 3164 3164 3163 3162 3161 3160 3158 3156 3155 3153 3152 3151 3149 3148 3146 3144 3143 3141 3139 3138 3136 3134 3132 3130 3128 3126 3122 3116 3115 3115 3112 3110 3109 3107 3105 3102 3099 3096 3094 3093 3091 3089 3087 3083 3077 3072 3070 3065 3054 3047 3043 3042 3043 3040 3036 3035 3031 3028 3026 3022 3019 3017 3013 3009 3004 2999 2994 2990
3165 3165 3165 3165 3164 3164 3164 3163 3163 3163 3163 3163 3162 3163 3164 3165 3165 3165 3165 3165 3165 3164 3163 3162 3160 3159 3157 3156 3155 3154 3153 3151 3149 3148 3146 3144 3142 3141 3139 3138 3136 3134 3132 3130 3128 3126 3122 3113 3111 3112 3110 3108 3107 3105 3103 3101 3098 3095 3093 3091 3089 3087 3084 3082 3077 3071 3070 3064 3050 3044 3042 3039 3040 3038 3033 3031 3028 3025 3023 3018 3015 3012 3007 3003 2999 2995 2990 2986
3166 3165 3165 3165 3165 3164 3164 3164 3164 3164 3164 3164 3163 3163 3165 3165 3166 3166 3166 3165 3165 3164 3163 3161 3160 3159 3158 3156 3155 3154 3153 3151 3149 3147 3146 3144 3142 3140 3139 3137 3136 3134 3132 3130 3127 3126 3122 3113 3107 3108 3108 3106 3105 3103 3100 3098 3096 3094 3092 3090 3089 3087 3083 3080 3078 3073 3071 3062 3047 3041 3040 3037 3036 3034 3031 3028 3025 3022 3019 3015 3011 3007 3003 2999 2995 2990 2985 2982
3167 3166 3166 3166 3166 3165 3165 3165 3165 3164 3164 3165 3164 3164 3166 3166 3166 3166 3166 3165 3165 3164 3163 3162 3161 3160 3158 3157 3156 3154 3152 3151 3149 3147 3146 3144 3142 3140 3139 3137 3136 3133 3131 3129 3127 3125 3124 3117 3108 3106 3107 3106 3103 3101 3098 3096 3094 3092 3091 3089 3088 3087 3083 3079 3076 3073 3070 3061 3048 3039 3034 3033 3032 3031 3029 3025 3021 3019 3016 3011 3007 3003 3000 2996 2990 2985 2981 2977
3167 3167 3167 3167 3166 3166 3166 3165 3165 3165 3165 3165 3165 3165 3166 3166 3166 3166 3166 3165 3165 3164 3163 3162 3161 3160 3159 3158 3156 3154 3153 3151 3149 3148 3146 3144 3142 3140 3138 3137 3135 3134 3131 3129 3127 3123 3122 3120 3110 3104 3105 3104 3102 3101 3097 3095 3093 3091 3090 3089 3087 3085 3083 3078 3071 3069 3068 3061 3051 3042 3032 3029 3031 3029 3026 3023 3018 3015 3012 3008 3004 3000 2996 2991 2985 2980 2977 2973
3168 3168 3168 3168 3167 3167 3167 3166 3166 3166 3166 3166 3166 3166 3167 3167 3167 3167 3166 3165 3165 3164 3163 3162 3161 3161 3159 3158 3156 3154 3153 3151 3149 3148 3146 3144 3143 3140 3138 3137 3134 3133 3131 3128 3127 3123 3120 3118 3110 3103 3102 3101 3100 3099 3097 3095 3093 3091 3089 3087 3086 3083 3081 3077 3068 3064 3065 3060 3054 3048 3033 3026 3031 3029 3024 3020 3016 3012 3008 3004 3001 2996 2992 2987 2982 2977 2973 2969
3169 3169 3169 3169 3168 3168 3168 3168 3167 3167 3167 3167 3167 3167 3167 3167 3167 3167 3166 3166 3165 3164 3164 3163 3162 3161 3160 3158 3157 3155 3153 3151 3149 3148 3146 3144 3143 3141 3138 3136 3133 3131 3129 3127 3125 3123 3120 3116 3109 3103 3101 3099 3098 3096 3094 3093 3091 3090 3088 3086 3084 3082 3079 3078 3069 3061 3061 3057 3053 3049 3035 3025 3029 3028 3022 3019 3015 3010 3007 3002 2998 2993 2988 2983 2979 2974 2970 2965
3171 3171 3170 3170 3170 3169 3169 3169 3169 3168 3168 3168 3168 3168 3167 3167 3167 3167 3166 3166 3165 3165 3164 3163 3162 3161 3160 3158 3156 3154 3152 3150 3148 3147 3146 3144 3143 3141 3138 3135 3133 3130 3128 3126 3124 3122 3120 3116 3109 3101 3095 3093 3094 3093 3092 3091 3090 3088 3086 3084 3082 3080 3077 3076 3069 3062 3057 3052 3050 3048 3033 3024 3027 3027 3022 3020 3015 3010 3006 3001 2995 2990 2985 2980 2975 2970 2965 2960
3172 3172 3171 3171 3171 3170 3170 3170 3170 3170 3169 3168 3168 3168 3168 3168 3168 3167 3167 3166 3166 3165 3164 3163 3162 3161 3159 3157 3156 3154 3152 3150 3148 3146 3145 3144 3141 3139 3137 3134 3132 3129 3127 3125 3124 3122 3120 3117 3113 3105 3097 3091 3089 3089 3089 3088 3087 3085 3083 3082 3079 3077 3075 3071 3067 3063 3056 3048 3048 3046 3030 3022 3027 3027 3021 3017 3011 3006 3003 2998 2993 2987 2981 2976 2970 2965 2960 2955
3173 3173 3172 3172 3172 3172 3171 3170 3171 3170 3169 3169 3169 3169 3168 3168 3168 3168 3167 3167 3166 3165 3164 3163 3162 3160 3159 3157 3155 3153 3152 3150 3148 3146 3145 3143 3140 3138 3135 3133 3131 3129 3127 3124 3122 3121 3119 3117 3115 3112 3108 3103 3096 3093 3091 3087 3085 3082 3080 3079 3076 3074 3072 3068 3064 3061 3054 3044 3044 3042 3029 3020 3024 3024 3017 3011 3006 3001 2997 2993 2989 2984 2978 2971 2966 2960 2955 2950
3175 3174 3174 3173 3173 3174 3172 3171 3171 3171 3170 3170 3169 3169 3169 3169 3169 3168 3168 3167 3166 3165 3164 3163 3162 3160 3158 3157 3155 3153 3151 3149 3148 3146 3144 3142 3139 3137 3134 3132 3130 3128 3126 3124 3121 3119 3117 3116 3115 3113 3111 3108 3102 3097 3094 3091 3085 3080 3076 3075 3073 3071 3069 3066 3062 3058 3053 3044 3037 3037 3031 3020 3017 3018 3012 3006 3001 2996 2991 2987 2982 2978 2972 2967 2962 2956 2951 2947
3176 3175 3175 3174 3174 3174 3173 3172 3172 3172 3171 3171 3170 3170 3170 3169 3169 3168 3168 3167 3166 3165 3164 3163 3161 3160 3158 3156 3154 3152 3151 3149 3147 3145 3143 3141 3139 3137 3134 3131 3129 3127 3125 3122 3120 3118 3115 3113 3113 3111 3107 3105 3101 3095 3093 3091 3086 3080 3075 3071 3070 3069 3066 3063 3060 3055 3052 3044 3033 3030 3030 3022 3014 3012 3008 3002 2997 2992 2987 2983 2977 2972 2968 2963 2957 2952 2947 2942
3177 3176 3176 3175 3175 3174 3174 3173 3173 3172 3172 3171 3171 3170 3170 3170 3169 3169 3168 3167 3166 3165 3164 3162 3161 3159 3157 3155 3153 3151 3149 3148 3146 3144 3141 3139 3137 3135 3133 3130 3128 3126 3124 3121 3119 3117 3114 3111 3110 3107 3103 3101 3099 3095 3091 3088 3083 3078 3074 3070 3068 3067 3064 3060 3056 3052 3050 3045 3034 3027 3026 3020 3013 3010 3005 3000 2995 2990 2984 2980 2974 2969 2964 2958 2952 2947 2942 2938
3178 3177 3177 3176 3175 3175 3174 3174 3173 3173 3172 3172 3171 3171 3171 3170 3169 3169 3168 3167 3166 3164 3163 3162 3160 3158 3156 3154 3152 3150 3148 3145 3143 3141 3139 3137 3135 3133 3131 3129 3127 3125 3123 3121 3119 3117 3113 3110 3107 3104 3099 3096 3095 3092 3088 3085 3079 3074 3071 3069 3066 3064 3061 3057 3053 3049 3047 3042 3035 3028 3022 3017 3013 3008 3003 2998 2994 2988 2983 2977 2971 2965 2959 2953 2947 2942 2938 2934
3179 3178 3177 3177 3176 3175 3175 3174 3174 3173 3173 3172 3172 3171 3171 3170 3169 3169 3168 3167 3165 3164 3163 3161 3159 3157 3156 3154 3152 3150 3148 3146 3143 3141 3138 3136 3134 3132 3130 3129 3127 3125 3123 3121 3119 3116 3113 3108 3106 3103 3096 3091 3091 3088 3084 3081 3077 3071 3067 3066 3063 3060 3057 3054 3050 3047 3042 3036 3031 3026 3018 3013 3010 3006 3000 2996 2991 2985 2978 2972 2966 2960 2954 2948 2943 2939 2935 2930
3180 3179 3178 3177 3177 3176 3175 3175 3174 3174 3173 3173 3172 3172 3171 3170 3169 3168 3167 3166 3165 3164 3162 3161 3159 3157 3156 3154 3152 3150 3148 3146 3144 3141 3139 3137 3134 3133 3131 3129 3127 3125 3123 3121 3118 3115 3112 3108 3104 3101 3094 3087 3087 3086 3081 3077 3073 3069 3066 3063 3059 3056 3053 3051 3048 3045 3040 3032 3025 3019 3014 3008 3004 3001 2996 2992 2986 2980 2973 2966 2961 2956 2950 2945 2940 2935 2931 2925
3181 3180 3179 3178 3177 3176 3176 3175 3175 3174 3174 3173 3172 3172 3171 3170 3169 3168 3167 3166 3165 3163 3162 3160 3159 3157 3155 3154 3152 3150 3148 3146 3144 3141 3139 3137 3135 3133 3132 3130 3128 3125 3122 3120 3117 3114 3112 3108 3103 3100 3093 3085 3084 3084 3079 3073 3068 3065 3064 3061 3058 3054 3051 3047 3045 3042 3039 3033 3024 3016 3011 3006 3002 2997 2991 2985 2980 2975 2969 2963 2957 2951 2946 2942 2938 2933 2927 2921